Home > Weather > Everett > Past weeks

Flag for USA Past Weather in Everett, Washington, USA — Yesterday and Last 2 Weeks

Now
70 °F

Sunny.


Feels Like: 77 °F
Forecast: 56 / 71 °F
Wind: 7 mph from North

Location: Snohomish County Airport

Current Time: May 31, 2016 at 6:45:50 PM

Latest Report: May 31, 2016 at 5:53 PM


Visibility: 10 mi

Pressure: 29.99 "Hg

Humidity: 49%

Dew Point: 50 °F

Location of EverettLocation

Past Weather in Everett — Graph

°F

Everett Temperature Yesterday

Maximum temperature yesterday: 67 °F (at 4:53 PM)
Minimum temperature yesterday: 48 °F (at 4:53 AM)
Average temperature yesterday: 57 °F

High & Low Weather Summary for the Past Weeks

 TemperatureHumidityPressure
High73 °F (May 31, 3:53 PM)93% (May 26, 6:53 PM)30.32 "Hg (May 26, 6:53 PM)
Low48 °F (May 17, 4:53 AM)41% (May 31, 3:53 PM)29.74 "Hg (May 21, 4:53 AM)
Average55 °F73%30.05 "Hg
* Reported May 16 4:53 PM — May 31 4:53 PM, Everett, Weather by CustomWeather, © 2016

Note: Actual official high and low records may vary slightly from our data, if they occured in-between our weather recording intervals... More about our weather records

Advertising

Everett Weather History for the Previous 24 Hours

Scroll right to see more
 ConditionsComfort  
Time TempWeatherWind HumidityBarometerVisibility
4:53 PM
Tue, May 31
70 °FSunny.5 mph49%30.01 "Hg10 mi
3:53 PM73 °FSunny.5 mph41%30.02 "Hg10 mi
2:53 PM72 °FSunny.5 mph46%30.04 "Hg10 mi
1:53 PM71 °FSunny.6 mph45%30.06 "Hg10 mi
12:53 PM69 °FSunny.6 mph53%30.08 "Hg10 mi
11:53 AM66 °FSunny.5 mph59%30.09 "Hg10 mi
10:53 AM65 °FSunny.5 mph56%30.10 "Hg10 mi
9:53 AM63 °FSunny.6 mph58%30.11 "Hg10 mi
8:53 AM63 °FSunny.No wind54%30.12 "Hg10 mi
7:53 AM59 °FSunny.5 mph64%30.13 "Hg10 mi
6:53 AM54 °FSunny.7 mph74%30.14 "Hg10 mi
5:53 AM51 °FClear.5 mph77%30.14 "Hg10 mi
4:53 AM51 °FClear.No wind77%30.14 "Hg10 mi
3:53 AM51 °FClear.5 mph83%30.15 "Hg10 mi
2:53 AM51 °FClear.3 mph83%30.16 "Hg10 mi
1:53 AM51 °FClear.3 mph83%30.17 "Hg10 mi
12:53 AM53 °FClear.3 mph80%30.18 "Hg10 mi
11:53 PM
Mon, May 30
53 °FClear.3 mph74%30.19 "Hg10 mi
10:53 PM57 °FClear.5 mph58%30.20 "Hg10 mi
9:53 PM58 °FSunny.5 mph58%30.21 "Hg10 mi
8:53 PM60 °FSunny.5 mph56%30.21 "Hg10 mi
7:53 PM63 °FSunny.5 mph50%30.21 "Hg10 mi
6:53 PM65 °FSunny.8 mph49%30.22 "Hg10 mi
Weather by CustomWeather, © 2016

See weather overviewHow to use our weather pages